CZ-4C DEB, 55837

Orbit data source: Space-Track

CZ-4C DEB, 55837 is space debris in SSO originally from a launch on Thu, 09 Mar 2023 UTC launched from the Taiyaun Space Center, China (TSC). Debris objects in space refer to the collection of defunct objects orbiting the Earth. Examples of debris include non-operational satellites, rocket bodies, and fragments generated from explosions, collisions, or faulty payload assembly.

Loading next visibility...
Identifier
55837, 2023-030B
Orbit
SSO
Country
Flag of CNCN / PRC
Related business
Manufacturer
DFH
Mission
Spacecraft
Bus & Motor
Unknown
Mass
~50 kg wet, ~50 kg dry
Launch date (UTC)
2023-03-09 (3 years ago)
Launch vehicle
Unknown
Launch site
Taiyaun Space Center, China (TSC)
Object type
Payload
Rocket body
Debris
Shape & HBR
Cyl, 1.0 m
Radar Cross Section
7.858 m², Large (>1 m²)

Expand to show TLE details & history
Last TLE update: 2 days ago

TLE from 2 days ago
0 CZ-4C DEB
1 55837U 23030B   26171.31208422  .00000351  00000-0  24497-3 0  9993
2 55837  98.9784 183.9876 0003691 156.0967 204.0372 14.05126524168216
Epoch: 2026-06-20T07:29Z
TLE epoch observation values (Epoch: 2026-06-20T07:29:24.076Z)
Latitude
-0.00007°
Longitude
163.10878°
Altitude
881.428 km
Speed
7.41 km/s
True Right ascension
12h 15m 57s
True Declination
0° 00' 00"
Sunlit
Object was in daylight at epoch
Visualization orbit readout
Latitude
Unknown
Longitude
Unknown
Altitude
Unknown
Speed
Unknown
Apparent Right ascension
Unknown
Apparent Declination
Unknown
Sunlit
N/A
Visualization observer readout
Local Sidereal Time
21:25:01
Azimuth
Unknown
Elevation
Unknown
Doppler factor
Unknown
Orbital elements
Apogee altitude
875.965 km
Perigee altitude
870.612 km
Semi-major axis
7,251.425 km
Eccentricity
0.00037
Inclination
98.9784°
RAAN
183.9876°
Arg. of periapsis
156.0967°
True anomaly
204.01998°
Mean anomaly
204.0372°
Eccentric anomaly
204.02859°
Mean motion
3.51486 °/min
Orbital period
102.42 mins
BSTAR
0.00024497
Loading maneuver chart data...
Computing Atmospheric mass density...
Loading historical data...
Loading historical data...
Loading historical data...
Loading historical data...
Loading historical data...
Loading historical data...
Loading historical data...
Other satellites on launch #30 in the year 2023 (2023-03-09 UTC)

Documentation

Showing up to 5 results
|